FENGYUN 3C

Last updated on Thu Oct 16 2025 00:02:22 GMT+0000 (Coordinated Universal Time)

1 39260U 13052A 25288.64802458 .00000171 00000+0 10789-3 0 9999 2 39260 98.4696 269.1809 0014969 11.9828 348.1700 14.15668383623961
UTC large
Height (km)
Speed (km/s)
/
Latitude / Longitude
Inclination (degrees)
Orbital Period (minutes)
Azimuth
Elevation
Range (km)
Doppler Factor

Next 0 passes for location: London (51.5072 / 0.1276)

Sorry there are no passes over London.